Regional Weather Roundup
Issued by NWS

Home | Current Version | Previous Version | Text Only | Print | Product List | Glossary On
Versions: 1 2 3 4 5 6 7 8 9 10 11 12 13 14 15 16 17 18 19 20 21 22 23 24 25 26 27 28 29 30 31 32 33 34 35 36 37 38 39 40 41 42 43 44 45 46 47 48 49 50
000
ASUS43 KDMX 261106
RWRIA

WEATHER ROUNDUP FOR IOWA
NATIONAL WEATHER SERVICE DES MOINES IA
600 AM CDT TUE SEP 26 2017

NOTE: "FAIR" INDICATES FEW OR NO CLOUDS BELOW 12,000 FEET WITH NO
SIGNIFICANT WEATHER AND/OR OBSTRUCTIONS TO VISIBILITY.

* - THESE STATIONS ARE NOT NWS STATIONS...THUS NOT UNDER NWS
QUALITY CONTROL.  THEY ALSO DO NOT REPORT WEATHER SUCH
AS PRECIPITATION OR FOG.

IAZ001>003-012>014-020>022-031>034-043>046-261200-
   NORTHWEST IOWA

CITY           SKY/WX    TMP DP  RH WIND       PRES   REMARKS
CARROLL *      CLOUDY    63  63 100 NW9       29.97R
CHEROKEE *     CLOUDY    53  53 100 N5        29.98F
DENISON *      CLOUDY    55  55 100 N12       30.00R
LE MARS *      CLOUDY    52  52 100 NW6       30.01R
ORANGE CITY *  CLOUDY    54  54 100 NW7       30.00S
SHELDON *      CLOUDY    52  52 100 NW8       29.98S
SIOUX CITY     LGT RAIN  52  52 100 NW12      30.02R FOG
SPENCER        LGT RAIN  53  52  96 N8        29.98S
STORM LAKE *   CLOUDY    54  52  94 NW10G17   29.98S
$$

IAZ055>058-069>071-079>083-090>094-261200-
   SOUTHWEST IOWA

CITY           SKY/WX    TMP DP  RH WIND       PRES   REMARKS
ATLANTIC *     CLOUDY    59  59 100 NW7       29.97S
AUDUBON *      CLOUDY    59  57  94 NW6       29.98R
CLARINDA *     CLOUDY    61  61 100 NW6       30.00R
COUNCIL BLFS * CLOUDY    55  55 100 NW8       30.00R FOG
CRESTON *      CLOUDY    66  64  94 W6        29.97R FOG
HARLAN  *      CLOUDY    57  57 100 NW10      30.02R
LAMONI         LGT RAIN  66  66 100 CALM      29.94S
RED OAK *      CLOUDY    59  57  94 N6        29.99R
SHENANDOAH *   CLOUDY    59  57  94 NW8       30.00R
$$

IAZ047>049-059>061-072>074-084-261200-
   CENTRAL IOWA

CITY           SKY/WX    TMP DP  RH WIND       PRES   REMARKS
AMES           CLOUDY    66  66 100 SW5       29.94R FOG
ANKENY *       CLOUDY    66  66 100 W3        29.94R
BOONE *        FOG       64  64 100 W5        29.94R VSB 3/4
CHARITON *     LGT RAIN  66  66 100 CALM      29.93S
DES MOINES     CLOUDY    67  66  97 W5        29.93R
GRINNELL*      LGT RAIN  65  64  96 CALM      29.94R
KNOXVILLE *    LGT RAIN  66  64  94 CALM      29.92S
MARSHALLTOWN   CLOUDY    65  65 100 S5        29.92R
NEWTON *       CLOUDY    64  64 100 SE5       29.93S FOG
PELLA *        LGT RAIN  66  65  97 CALM      29.94R
PERRY *        CLOUDY    64  64  99 NW6       29.94S FOG
$$

IAZ004>006-015-016-023>025-035-036-261200-
   NORTH CENTRAL IOWA

CITY           SKY/WX    TMP DP  RH WIND       PRES   REMARKS
ALGONA *       DRIZZLE   57  57 100 NW10      29.96R
CLARION *      CLOUDY    61  61 100 W9        29.94R FOG
ESTHERVILLE    CLOUDY    53  53 100 NW9       29.97R FOG
FORT DODGE *   LGT RAIN  59  58  96 VRB7      29.96R
MASON CITY     CLOUDY    64  63  96 S8        29.93R
FOREST CITY *  RAIN      61  61 100 W8        29.93R
WEBSTER CITY * RAIN      61  61 100 W5        29.93R
IOWA FALLS *   CLOUDY    65  65  98 S7        29.94R FOG
$$

IAZ007>011-017>019-026>030-037>042-050>054-066-261200-
   NORTHEAST IOWA

CITY           SKY/WX    TMP DP  RH WIND       PRES   REMARKS
CEDAR RAPIDS   CLOUDY    67  66  97 NE7       29.92F
CHARLES CITY * CLOUDY    64  64 100 SE3       29.92S FOG
CLINTON *      CLOUDY   N/A N/A N/A E8        29.92S
DECORAH *      CLOUDY    64  64 100 CALM      29.93R
DUBUQUE        CLOUDY    67  64  90 E3        29.93S
MONTICELLO *   CLOUDY    66  66 100 W10       29.93R
OELWEIN *      DRIZZLE   64  64 100 SE3       29.94F
WATERLOO       CLOUDY    64  64 100 E6        29.90F
$$

IAZ064-065-067-068-078-261200-
   EAST CENTRAL IOWA

CITY           SKY/WX    TMP DP  RH WIND       PRES   REMARKS
DAVENPORT      CLOUDY    68  66  93 E5        29.93S
MUSCATINE *    CLOUDY    68  64  88 W7G16     29.92R
QUAD CITIES    CLOUDY    69  66  90 E5        29.91S
$$

IAZ062-063-075>077-085>089-095>099-261200-
   SOUTHEAST IOWA

CITY           SKY/WX    TMP DP  RH WIND       PRES   REMARKS
BURLINGTON     CLOUDY    69  67  93 S3        29.91S
FAIRFIELD *    CLOUDY    66  64  94 NE5       29.91F
FORT MADISON * CLOUDY    70  66  88 CALM      29.93R
KEOKUK *       CLOUDY    70  66  88 CALM      29.91S
OSKALOOSA *      N/A     65  64  97 NE8       29.92S FOG
OTTUMWA        MOCLDY    67  65  93 NE5       29.92R
WASHINGTON *   CLOUDY    68  66  94 N3        29.93F
$$

ABBREVIATIONS USED IN REMARKS
   TC - TEMPERATURES IN CELSIUS
  WCI - WIND CHILL INDEX
   HX - HEAT INDEX
  VSB - VISIBILITY
$$




USA.gov is the U.S. government's official web portal to all federal, state and local government web resources and services.